[[{"header":{"parameterUnit":"m.s-1","parameterCategory":1,"la1":30.2991,"la2":30.254,"lo1":-89.0895,"lo2":-89.0444,"dy":0.0017,"dx":0.0017,"nx":28,"ny":28,"refTime":"2023-08-21T09:00:00:Z","depth":0,"parameterNumber":2,"parameterNumberName":"U-component_of_WINDS"},"data":[0,0,0,0,0,0,0,0,0,0,0,0,0,0,0,0,0,0,0,0,0,0,0,0,0,0,0,0,0,0,0,0,0,0,0,0,0,0,0,0,0,0,0,0,0,0,0,0,0,0,0,0,0,0,0,0,0,0,-4.0941,-4.0942,0,-4.1077,-4.1079,-4.108,-4.1036,-4.1033,-4.103,-4.1027,-4.1168,-4.1174,-4.1181,0,0,0,0,0,0,0,0,0,0,0,0,0,-4.0643,-4.0649,-4.094,-4.0942,-4.0944,-4.1077,-4.1079,-4.1081,-4.1036,-4.1033,-4.1029,-4.1026,-4.1166,-4.1174,-4.1181,0,0,0,0,0,0,0,0,0,0,0,0,0,-4.0775,-4.0651,-4.094,-4.0938,-4.0939,-4.1077,-4.1079,-4.1081,-4.1037,-4.1033,-4.1028,-4.1024,-4.1163,-4.1173,-4.1182,-4.1331,0,0,-4.1212,-4.1216,0,0,0,0,0,0,0,0,-4.0768,-4.0786,-4.0936,-4.0938,-4.094,-4.1035,-4.1026,-4.1165,-4.1038,-4.1,-4.1027,-4.1022,-4.1127,-4.114,-4.1175,-4.1338,-4.1344,-4.1213,-4.1219,-4.1223,-4.1226,0,0,0,0,0,0,0,-4.0759,-4.078,-4.0995,-4.0939,-4.0941,-4.0931,-4.0944,-4.1052,-4.1087,-4.1003,-4.1,-4.1017,-4.1127,-4.1166,-4.1178,-4.1346,-4.1213,-4.1221,-4.1228,-4.1231,-4.1638,-4.1643,0,0,0,0,0,0,-4.0748,-4.0773,-4.099,-4.0999,-4.0841,-4.094,-4.0955,-4.1009,-4.1086,-4.1093,-4.102,-4.1014,-4.1151,-4.1167,-4.1183,-4.1362,-4.1223,-4.1232,-4.1238,-4.1633,-4.1639,-4.1645,0,0,0,0,0,0,-4.0742,-4.0768,-4.0985,-4.0885,-4.0912,-4.0949,-4.101,-4.1014,-4.1052,-4.1099,-4.1105,-4.1053,-4.1149,-4.1169,-4.1295,-4.1366,-4.1237,-4.1246,-4.1627,-4.1635,-4.1642,-4.1722,0,0,0,0,0,0,-4.0734,-4.0766,-4.0822,-4.0887,-4.0917,-4.1094,-4.1015,-4.102,-4.1069,-4.1062,-4.1131,-4.1138,-4.1147,-4.128,-4.1304,-4.1377,-4.1253,-4.1621,-4.1631,-4.164,-4.1713,-4.1731,-4.1746,0,0,0,0,0,-4.0723,-4.0839,-4.0825,-4.0852,-4.0988,-4.1098,-4.1115,-4.1123,-4.1075,-4.1132,-4.1162,-4.1136,-4.1355,-4.1294,-4.132,-4.1397,-4.1617,-4.1628,-4.1639,-4.1705,-4.1727,-4.1746,0,0,0,0,0,0,-4.0782,-4.0848,-4.0833,-4.0973,-4.103,-4.109,-4.1162,-4.1146,-4.1218,-4.1208,-4.1215,-4.1231,-4.136,-4.1391,-4.1322,-4.1546,-4.1479,-4.1496,-4.152,-4.1541,-4.1558,-4.1547,-4.1261,0,0,0,0,0,-4.0812,-4.0895,-4.0948,-4.1066,-4.1096,-4.1124,-4.1172,-4.1173,-4.1233,-4.1257,-4.1296,-4.1355,-4.1438,-4.1491,-4.157,-4.1718,-4.1732,-4.1784,-4.1801,-4.1814,-4.1829,-4.191,-4.1934,-4.1681,-4.1681,-4.1681,0,0,-4.0873,-4.0919,-4.0971,-4.1079,-4.1124,-4.121,-4.1145,-4.1239,-4.1303,-4.1271,-4.1392,-4.1423,-4.149,-4.1627,-4.169,-4.1658,-4.1902,-4.1829,-4.1839,-4.1846,-4.1924,-4.1948,-4.1969,-4.1689,-4.1687,-4.1686,0,0,-4.1029,-4.1072,-4.1175,-4.1222,-4.129,-4.1309,-4.1334,-4.1397,-4.1416,-4.1538,-4.1516,-4.1593,-4.1734,-4.1783,-4.1826,-4.2003,-4.1982,-4.2029,-4.2116,-4.2195,-4.2215,-4.2233,-4.2296,-4.2319,-4.2043,-4.2043,-4.2043,0,-4.1096,-4.1225,-4.1231,-4.1327,-4.1376,-4.1351,-4.1457,-4.1502,-4.1592,-4.1627,-4.159,-4.1767,-4.1811,-4.196,-4.2003,-4.2039,-4.2068,-4.202,-4.2212,-4.223,-4.2246,-4.2307,-4.233,-4.2048,-4.2048,-4.2047,-4.2047,0,-4.1305,-4.1395,-4.147,-4.1558,-4.1616,-4.1716,-4.1739,-4.1796,-4.1793,-4.1816,-4.1941,-4.1992,-4.208,-4.2116,-4.2114,-4.2266,-4.2244,-4.221,-4.2142,-4.2275,-4.2332,-4.2355,-4.2056,-4.2054,-4.2052,-4.2051,0,0,-4.1499,-4.1591,-4.1618,-4.1658,-4.1733,-4.1803,-4.1903,-4.199,-4.2039,-4.2104,-4.2188,-4.2309,-4.2279,-4.2328,-4.2331,-4.2401,-4.2538,-4.2358,-4.236,-4.239,-4.2709,-4.2734,-4.2761,-4.2525,-4.253,-4.2533,-4.2704,0,-4.1661,-4.1836,-4.1845,-4.2005,-4.2088,-4.2067,-4.2155,-4.2211,-4.2236,-4.2311,-4.2338,-4.2424,-4.2377,-4.2407,-4.2475,-4.2507,-4.2602,-4.2495,-4.2604,-4.2608,-4.2587,-4.279,-4.2816,-4.2975,-4.2726,-4.273,-4.2732,0,-4.1872,-4.1943,-4.211,-4.2174,-4.221,-4.2288,-4.2369,-4.2441,-4.2504,-4.2518,-4.2574,-4.2568,-4.2671,-4.2602,-4.2745,-4.2672,-4.2718,-4.2741,-4.2747,-4.2756,-4.2677,-4.2805,-4.3025,-4.3049,-4.2767,-4.2765,-4.2762,0,-4.1997,-4.2134,-4.2252,-4.2288,-4.2365,-4.2421,-4.2456,-4.2515,-4.2567,-4.2638,-4.2672,-4.2755,-4.28,-4.2864,-4.2881,-4.2829,-4.3025,-4.2956,-4.3039,-4.3039,-4.308,-4.3077,-4.331,-4.3111,-4.3111,-4.311,-4.311,0,-4.2176,-4.2279,-4.231,-4.2382,-4.2498,-4.2509,-4.2623,-4.2655,-4.2708,-4.2787,-4.2775,-4.2849,-4.2867,-4.2946,-4.296,-4.3077,-4.3098,-4.3112,-4.3114,-4.3113,-4.3111,-4.3142,-4.3131,-4.3117,-4.3115,-4.3114,-4.3113,0,-4.2334,-4.2359,-4.2486,-4.255,-4.2568,-4.2651,-4.2705,-4.2775,-4.2799,-4.29,-4.2924,-4.2962,-4.3054,-4.3077,-4.3187,-4.3197,-4.3335,-4.3327,-4.3314,-4.3313,-4.3394,-4.3386,-4.3655,-4.3691,-4.3469,-4.3471,-4.3472,0,-4.2446,-4.2526,-4.2598,-4.2649,-4.2687,-4.2771,-4.2824,-4.2838,-4.2894,-4.2974,-4.3035,-4.3125,-4.3198,-4.3347,-4.3384,-4.3469,-4.3463,-4.3552,-4.3476,-4.3472,-4.3464,-4.3459,-4.3467,-4.3566,-4.3568,-4.357,-4.3571,0,-4.2643,-4.2651,-4.2728,-4.281,-4.2874,-4.2939,-4.3001,-4.3045,-4.3068,-4.3132,-4.3226,-4.3283,-4.3395,-4.3486,-4.3571,-4.3608,-4.3595,-4.3595,-4.3619,-4.3618,-4.3606,-4.3614,-4.3352,-4.3589,-4.3587,-4.3586,-4.3585,-4.3584,-4.2782,-4.2851,-4.2913,-4.2999,-4.3048,-4.3107,-4.3176,-4.3209,-4.3287,-4.338,-4.3384,-4.3486,-4.355,-4.3663,-4.3705,-4.3786,-4.376,-4.3794,-4.3802,-4.3811,-4.3818,-4.3594,-4.3802,-4.3802,-4.3801,-4.3801,-4.38,0,-4.2977,-4.3016,-4.3096,-4.3183,-4.3252,-4.3233,-4.3301,-4.336,-4.345,-4.351,-4.3582,-4.3691,-4.3779,-4.3825,-4.3912,-4.3969,-4.3965,-4.3991,-4.3987,-4.3996,-4.3836,-4.3807,-4.3993,-4.3993,-4.3993,-4.3993,-4.3993,-4.3993,-4.3087,-4.3204,-4.322,-4.3362,-4.34,-4.35,-4.3541,-4.3596,-4.3644,-4.3765,-4.3838,-4.3867,-4.3922,-4.4014,-4.4095,-4.4106,-4.4139,-4.4169,-4.4177,-4.4027,-4.4007,-4.3988,-4.3961,-4.4176,-4.4176,-4.433,-4.4331,-4.4332]},{"header":{"parameterUnit":"m.s-1","parameterCategory":1,"la1":30.2991,"la2":30.254,"lo1":-89.0895,"lo2":-89.0444,"dy":0.0017,"dx":0.0017,"nx":28,"ny":28,"refTime":"2023-08-21T09:00:00:Z","depth":0,"parameterNumber":3,"parameterNumberName":"V-component_of_WINDS"},"data":[0,0,0,0,0,0,0,0,0,0,0,0,0,0,0,0,0,0,0,0,0,0,0,0,0,0,0,0,0,0,0,0,0,0,0,0,0,0,0,0,0,0,0,0,0,0,0,0,0,0,0,0,0,0,0,0,0,0,2.3768,2.3768,0,2.3836,2.3836,2.3837,2.386,2.386,2.3859,2.3859,2.3924,2.3926,2.3928,0,0,0,0,0,0,0,0,0,0,0,0,0,2.3654,2.3655,2.3767,2.3768,2.3769,2.3835,2.3836,2.3837,2.386,2.386,2.3859,2.3859,2.3923,2.3926,2.3928,0,0,0,0,0,0,0,0,0,0,0,0,0,2.371,2.3656,2.3767,2.3789,2.3791,2.3835,2.3836,2.3838,2.386,2.3859,2.3859,2.3859,2.3923,2.3926,2.3929,2.3955,0,0,2.3938,2.3939,0,0,0,0,0,0,0,0,2.3707,2.3714,2.3785,2.3787,2.379,2.3839,2.382,2.3877,2.386,2.3834,2.3859,2.3859,2.3896,2.3901,2.3914,2.3958,2.3961,2.3938,2.394,2.3941,2.3942,0,0,0,0,0,0,0,2.3703,2.3712,2.3794,2.3785,2.3789,2.3793,2.3801,2.3831,2.3866,2.3836,2.3838,2.3846,2.3897,2.3912,2.3916,2.3962,2.3938,2.394,2.3942,2.3943,2.4032,2.4032,0,0,0,0,0,0,2.3696,2.3708,2.3792,2.3796,2.3747,2.3796,2.3804,2.3824,2.3866,2.3872,2.3846,2.3847,2.3907,2.3913,2.3918,2.3953,2.3941,2.3944,2.3945,2.4031,2.4032,2.4032,0,0,0,0,0,0,2.3694,2.3703,2.3789,2.3753,2.3764,2.3798,2.382,2.3825,2.384,2.3874,2.3879,2.3854,2.3907,2.3914,2.3946,2.3955,2.3945,2.3948,2.403,2.4031,2.4032,2.4021,0,0,0,0,0,0,2.369,2.3702,2.3713,2.3753,2.3766,2.3817,2.382,2.3827,2.3845,2.3846,2.3883,2.3889,2.3907,2.3942,2.3949,2.3959,2.395,2.403,2.4031,2.4032,2.4021,2.4022,2.4022,0,0,0,0,0,2.3686,2.3707,2.3714,2.3724,2.3781,2.3817,2.3825,2.3847,2.3846,2.3857,2.3879,2.3887,2.3953,2.3945,2.3954,2.3964,2.4029,2.403,2.4032,2.4021,2.4021,2.4022,0,0,0,0,0,0,2.3665,2.3712,2.3721,2.3755,2.3782,2.3821,2.3836,2.3847,2.3874,2.3873,2.3898,2.3906,2.3936,2.3954,2.3943,2.3993,2.3992,2.3995,2.398,2.3981,2.3982,2.3977,2.3953,0,0,0,0,0,2.3665,2.3692,2.3731,2.3757,2.3771,2.3801,2.3818,2.3833,2.3861,2.3872,2.3897,2.3923,2.395,2.3967,2.3993,2.4024,2.4032,2.4036,2.4037,2.4037,2.4039,2.4057,2.4059,2.4036,2.4036,2.4036,0,0,2.3664,2.3693,2.3708,2.3754,2.3777,2.3803,2.381,2.3838,2.3857,2.3876,2.3908,2.3927,2.3958,2.399,2.4005,2.4005,2.4047,2.4038,2.4039,2.404,2.4058,2.406,2.4062,2.4037,2.4037,2.4037,0,0,2.3676,2.37,2.3726,2.3749,2.3784,2.3805,2.3811,2.3849,2.3862,2.3896,2.391,2.3933,2.3979,2.4001,2.4018,2.404,2.4048,2.4047,2.405,2.4067,2.4069,2.4071,2.4078,2.4081,2.4049,2.4049,2.4049,0,2.3669,2.3711,2.3736,2.3764,2.3783,2.3804,2.3829,2.385,2.3891,2.3904,2.3904,2.3963,2.3985,2.4022,2.4028,2.4041,2.4048,2.4043,2.4067,2.4069,2.4071,2.4079,2.4081,2.4049,2.4049,2.4049,2.4049,0,2.3702,2.373,2.3746,2.3788,2.3809,2.3835,2.3864,2.3882,2.3896,2.3915,2.3949,2.3977,2.401,2.402,2.4032,2.4059,2.4058,2.4063,2.4062,2.4072,2.408,2.4083,2.4049,2.4049,2.4049,2.4049,0,0,2.3701,2.3758,2.3763,2.3782,2.3824,2.3846,2.3873,2.3907,2.3922,2.395,2.3973,2.4012,2.4017,2.4036,2.4051,2.4067,2.4082,2.4069,2.407,2.407,2.4113,2.411,2.4112,2.4089,2.409,2.409,2.4111,0,2.3717,2.3768,2.3792,2.3831,2.3858,2.3878,2.3902,2.3929,2.3949,2.3974,2.3995,2.4022,2.4026,2.4038,2.4054,2.4077,2.4091,2.4076,2.4109,2.411,2.41,2.4116,2.4112,2.413,2.4114,2.4114,2.4115,0,2.3743,2.3774,2.3816,2.3855,2.3868,2.3888,2.3922,2.3946,2.3977,2.399,2.4013,2.4028,2.4056,2.4054,2.4093,2.4083,2.4098,2.4111,2.4112,2.4115,2.4112,2.4119,2.4137,2.4139,2.412,2.4119,2.4119,0,2.3738,2.379,2.3822,2.3838,2.3884,2.3899,2.3918,2.395,2.3969,2.3998,2.401,2.4041,2.4058,2.4082,2.4105,2.4101,2.4141,2.4141,2.4152,2.4152,2.4159,2.4158,2.4178,2.417,2.417,2.417,2.417,0,2.3754,2.3779,2.382,2.384,2.3869,2.3896,2.3923,2.3944,2.3972,2.3996,2.4015,2.4036,2.4066,2.4091,2.4109,2.4138,2.4146,2.4157,2.4161,2.4155,2.4153,2.4164,2.4163,2.4171,2.417,2.417,2.417,0,2.3753,2.3781,2.3818,2.386,2.3871,2.389,2.3925,2.3945,2.3966,2.3996,2.4004,2.4037,2.4068,2.4093,2.4133,2.4145,2.4176,2.4181,2.4165,2.4167,2.4177,2.4175,2.4204,2.4209,2.4198,2.4198,2.4198,0,2.3761,2.3781,2.3825,2.3843,2.3863,2.3892,2.3912,2.394,2.396,2.3998,2.4013,2.4045,2.4072,2.412,2.4147,2.4177,2.4183,2.4191,2.4188,2.4181,2.4183,2.4181,2.4183,2.4191,2.4191,2.4191,2.4191,0,2.3772,2.3785,2.3815,2.3849,2.3873,2.3901,2.3929,2.3943,2.3976,2.3997,2.4029,2.4051,2.4092,2.4124,2.4158,2.4177,2.4189,2.4192,2.4196,2.4189,2.4179,2.4185,2.4165,2.4191,2.4191,2.4191,2.4191,2.4191,2.3775,2.3794,2.3829,2.3861,2.3886,2.3912,2.3933,2.3958,2.3986,2.4022,2.4037,2.407,2.4101,2.4148,2.4168,2.4193,2.4195,2.4201,2.4202,2.4203,2.4202,2.4176,2.42,2.42,2.42,2.42,2.42,0,2.3787,2.3811,2.384,2.388,2.3905,2.3917,2.3949,2.3969,2.3998,2.4027,2.4054,2.4091,2.4123,2.4153,2.4185,2.42,2.4206,2.4207,2.4206,2.421,2.4199,2.4192,2.4201,2.4201,2.4201,2.4201,2.4201,2.4201,2.3796,2.3829,2.3847,2.3892,2.3916,2.3949,2.3967,2.3991,2.4014,2.4056,2.4082,2.4102,2.4131,2.4166,2.4195,2.4203,2.4214,2.4213,2.4223,2.4211,2.4211,2.421,2.4204,2.4216,2.4216,2.4232,2.4232,2.4232]}]]